アマラウ彗星

C/2020 O2 ( Amaral )

English version
Home page
Updated on November 26, 2022

---------------------------------------------------------------------

・ プロフィール

発見日 2020年7月23日
発見光度 18.1等
発見者 Leonardo S. Amaral (Rio de Janeiro, Brazil)

・ 写真集

・ 軌道要素

Epoch 2022 Aug. 9.0 TT = JDT 2459800.5
T 2021 Aug. 28.65722 TT                                 Rudenko
q   4.8624772            (2000.0)            P               Q
z  -0.0004393      Peri.   10.31617     -0.17072683     +0.34084499
 +/-0.0000007      Node   256.76148     -0.95809548     -0.27645383
e   1.0021359      Incl.   71.75497     -0.23001172     +0.89855327
From 1309 observations 2020 July 23-2022 Sept. 6, mean residual 0".5.

・ 星図

・ 光度変化

        m1 = -1.2 + 5 logΔ + 20.0 log r

---------------------------------------------------------------------

軌道要素はM.P.E.C. 2022-R139に掲載されたものです。
星図はステラナビゲータ Ver.10 (アストロアーツ) で作成したものです。
光度グラフはComet for Windowsで作成したものです。

---------------------------------------------------------------------

Copyright(C) Seiichi Yoshida (comet@aerith.net). All rights reserved.